FW0708 Weather Reports


Display with metric or nautical units.
time (UTC)temp
F
wind
direction
speed
MPH
gust
MPH
rain 1hr
in
rain 24hr
in
rain mn
in
humidity
%
barometer
mb
20260906221507 73 45 5.0 11.0 0.00 0.01 0.01 79 1016.8
20260906220007 74 54 5.0 9.0 0.00 0.01 0.01 77 1016.8
20260906214506 74 50 4.0 10.0 0.00 0.01 0.01 77 1016.9
20260906213003 74 77 5.0 10.0 0.00 0.01 0.01 77 1017.1
20260906211502 75 75 6.0 11.0 0.00 0.01 0.01 76 1017.2
20260906210001 75 62 4.0 10.0 0.00 0.01 0.01 77 1017.3
20260906204501 74 79 4.0 11.0 0.00 0.01 0.01 78 1017.4
20260906203001 74 66 8.0 12.0 0.00 0.01 0.01 77 1017.3
20260906201603 74 55 5.0 12.0 0.00 0.01 0.01 77 1017.4
20260906200108 75 61 3.0 10.0 0.00 0.01 0.01 76 1017.3
20260906194559 75 27 5.0 9.0 0.00 0.01 0.01 77 1017.3
20260906193059 75 81 6.0 11.0 0.00 0.01 0.01 77 1017.4
20260906191557 75 85 3.0 10.0 0.00 0.01 0.01 79 1017.6
20260906190104 74 70 4.0 11.0 0.00 0.01 0.01 80 1017.6
20260906184624 74 70 5.0 10.0 0.00 0.01 0.01 79 1017.7
20260906183056 74 82 5.0 10.0 0.00 0.01 0.01 80 1017.7
20260906181555 74 66 8.0 12.0 0.00 0.01 0.01 78 1017.9
20260906180054 74 53 4.0 10.0 0.00 0.01 0.01 81 1018.0
20260906174553 74 351 4.0 10.0 0.00 0.01 0.01 80 1018.3
20260906173058 73 14 3.0 9.0 0.00 0.01 0.01 83 1018.5
20260906171551 73 319 4.0 11.0 0.00 0.01 0.01 80 1018.7
20260906170050 74 13 1.0 9.0 0.00 0.01 0.01 80 1018.7
20260906164547 74 71 4.0 11.0 0.00 0.01 0.01 80 1018.6
20260906163044 74 18 5.0 11.0 0.00 0.01 0.01 80 1018.5
20260906161541 74 336 3.0 8.0 0.00 0.01 0.01 81 1018.8
20260906160038 75 345 4.0 6.0 0.00 0.01 0.01 80 1018.6
20260906154533 74 27 2.0 5.0 0.00 0.01 0.01 82 1018.6
20260906153030 74 28 1.0 3.0 0.00 0.01 0.01 82 1018.6
20260906151525 73 21 1.0 3.0 0.00 0.01 0.01 83 1018.8
20260906150021 71 25 0.0 2.0 0.00 0.01 0.01 88 1019.0
20260906144520 69 50 0.0 2.0 0.00 0.01 0.01 92 1018.9
20260906143014 67 50 1.0 4.0 0.00 0.01 0.01 94 1019.0
20260906141520 66 79 0.0 3.0 0.00 0.01 0.01 96 1019.0
20260906140007 65 89 0.0 2.0 0.00 0.01 0.01 97 1019.2
20260906134505 65 107 0.0 1.0 0.00 0.01 0.01 98 1019.2
20260906133001 64 108 0.0 0.0 0.00 0.01 0.01 98 1019.1
20260906131600 63 108 0.0 1.0 0.00 0.01 0.01 98 1019.2
20260906130145 62 108 0.0 2.0 0.00 0.01 0.01 98 1019.1
20260906124606 61 108 0.0 1.0 0.00 0.01 0.01 98 1019.1
20260906123052 60 108 0.0 1.0 0.00 0.01 0.01 98 1019.1
20260906121601 60 108 0.0 0.0 0.00 0.01 0.01 97 1018.8
20260906120048 59 108 0.0 0.0 0.00 0.01 0.01 97 1018.7
20260906114544 59 108 0.0 0.0 0.00 0.01 0.01 97 1018.4
20260906113049 59 108 0.0 0.0 0.00 0.01 0.01 97 1018.1
20260906111540 59 108 0.0 0.0 0.00 0.01 0.01 97 1018.0
20260906110039 59 108 0.0 0.0 0.00 0.01 0.01 97 1017.8
20260906104539 59 108 0.0 0.0 0.00 0.01 0.01 97 1017.7
20260906103050 59 108 0.0 0.0 0.00 0.01 0.01 97 1017.7
20260906101537 59 108 0.0 0.0 0.01 0.01 0.01 97 1017.6
20260906100037 59 108 0.0 0.0 0.01 0.01 0.01 97 1017.6
20260906094535 59 108 0.0 0.0 0.01 0.01 0.01 96 1017.7
20260906093134 60 108 0.0 0.0 0.01 0.01 0.01 97 1017.7
20260906091533 60 108 0.0 1.0 0.00 0.00 0.00 97 1017.7
20260906090033 60 108 0.0 3.0 0.00 0.00 0.00 96 1017.8
20260906084531 60 107 0.0 1.0 0.00 0.00 0.00 96 1017.9
20260906083030 61 107 0.0 1.0 0.00 0.00 0.00 96 1017.9
20260906081529 61 107 0.0 1.0 0.00 0.00 0.00 96 1017.7
20260906080030 61 107 0.0 1.0 0.00 0.00 0.00 96 1017.7
20260906074528 61 107 0.0 1.0 0.00 0.01 0.00 96 1017.6
20260906073027 61 107 0.0 0.0 0.00 0.01 0.00 96 1017.7
20260906071527 61 107 0.0 2.0 0.00 0.01 0.00 96 1017.7
20260906070026 61 27 0.0 0.0 0.00 0.01 0.00 96 1017.7
20260906064533 61 27 0.0 1.0 0.00 0.01 0.00 95 1017.8
20260906063024 61 27 0.0 0.0 0.00 0.01 0.00 95 1017.8
20260906061525 62 27 0.0 0.0 0.00 0.01 0.00 95 1018.1
20260906060021 62 27 0.0 0.0 0.00 0.01 0.00 95 1017.7
20260906054528 63 27 0.0 1.0 0.00 0.01 0.00 95 1017.3
20260906053018 63 27 0.0 0.0 0.00 0.01 0.00 95 1017.5
20260906051514 63 27 0.0 1.0 0.00 0.01 0.00 94 1017.4
20260906050011 64 27 0.0 1.0 0.00 0.01 0.00 94 1017.3
20260906044510 65 22 0.0 0.0 0.00 0.01 0.01 95 1017.4
20260906043020 65 22 0.0 1.0 0.00 0.01 0.01 95 1017.4
20260906041509 65 24 0.0 2.0 0.00 0.01 0.01 95 1017.0
20260906040009 65 71 0.0 2.0 0.00 0.01 0.01 96 1016.8
20260906034508 64 53 1.0 3.0 0.00 0.01 0.01 96 1017.0
20260906033008 64 4 0.0 3.0 0.00 0.01 0.01 96 1017.0
20260906031509 64 4 0.0 4.0 0.00 0.01 0.01 96 1017.0
20260906030007 63 25 0.0 2.0 0.00 0.01 0.01 95 1016.7
20260906024508 63 24 0.0 1.0 0.00 0.01 0.01 95 1016.9
20260906023006 63 24 0.0 3.0 0.00 0.01 0.01 95 1016.7
20260906021510 63 50 0.0 2.0 0.00 0.01 0.01 95 1016.7
20260906020006 63 50 0.0 0.0 0.00 0.01 0.01 94 1016.6
20260906014513 63 50 0.0 0.0 0.00 0.01 0.01 93 1016.5
20260906013007 63 49 0.0 3.0 0.00 0.01 0.01 92 1016.4
20260906011606 64 50 0.0 1.0 0.00 0.01 0.01 90 1016.4
20260906010057 65 50 0.0 1.0 0.00 0.01 0.01 90 1016.4
20260906004556 66 50 0.0 0.0 0.00 0.01 0.01 88 1016.4
20260906003055 67 50 0.0 0.0 0.00 0.01 0.01 88 1016.5
20260906001554 68 50 0.0 2.0 0.00 0.01 0.01 89 1016.6
20260906000054 68 50 0.0 1.0 0.00 0.01 0.01 89 1016.7
20260905234554 68 50 0.0 3.0 0.00 0.01 0.01 90 1016.5
20260905233053 68 54 3.0 9.0 0.00 0.01 0.01 90 1016.4
20260905231552 68 47 3.0 9.0 0.00 0.01 0.01 89 1016.4
20260905230052 68 40 5.0 11.0 0.00 0.01 0.01 88 1016.7
20260905224551 69 38 4.0 10.0 0.00 0.01 0.01 86 1016.7
20260905223054 69 61 3.0 10.0 0.00 0.01 0.01 86 1016.7